QPF
0.05 0.04 0.04 0.05 0.08 0.09 0.08 0.08 0.06 0.03 0.03 0.03 0.03 0.03 0.05 0.11 0.14 0.10 0.07 0.06 0.06 0.06 0.07 0.08 0.09 0.10 0.10 0.08 0.06 0.06 0.06 0.08 0.09 0.07 0.07 0.08 0.08 0.07
0.05 0.03 0.02 0.03 0.06 0.07 0.07 0.07 0.07 0.05 0.04 0.05 0.05 0.04 0.04 0.06 0.13 0.11 0.07 0.07 0.05 0.04 0.06 0.07 0.09 0.10 0.11 0.10 0.07 0.06 0.04 0.04 0.04 0.05 0.05 0.04 0.04 0.05
0.03 0.02 0.02 0.03 0.04 0.05 0.06 0.05 0.07 0.06 0.06 0.07 0.07 0.06 0.05 0.04 0.04 0.06 0.05 0.06 0.05 0.04 0.04 0.06 0.08 0.08 0.08 0.09 0.07 0.06 0.05 0.04 0.03 0.04 0.04 0.04 0.04 0.05
0.03 0.02 0.02 0.02 0.03 0.05 0.05 0.05 0.05 0.05 0.06 0.06 0.07 0.06 0.05 0.03 0.02 0.03 0.03 0.03 0.04 0.04 0.04 0.05 0.06 0.07 0.07 0.07 0.06 0.06 0.07 0.07 0.07 0.06 0.05 0.04 0.04 0.04
0.04 0.03 0.02 0.03 0.04 0.04 0.04 0.04 0.04 0.05 0.06 0.06 0.07 0.06 0.03 0.02 0.02 0.02 0.02 0.02 0.02 0.02 0.03 0.04 0.05 0.07 0.07 0.07 0.06 0.06 0.07 0.08 0.07 0.06 0.05 0.05 0.04 0.03
0.04 0.03 0.02 0.03 0.04 0.06 0.06 0.05 0.05 0.06 0.07 0.07 0.05 0.04 0.03 0.02 0.02 0.01 0.01 0.01 0.01 0.01 0.02 0.02 0.03 0.05 0.06 0.06 0.06 0.05 0.05 0.04 0.04 0.04 0.04 0.04 0.04 0.04
0.04 0.03 0.03 0.03 0.04 0.07 0.08 0.08 0.09 0.09 0.08 0.06 0.05 0.04 0.03 0.03 0.01 0.01 0.02 0.02 0.02 0.02 0.02 0.02 0.03 0.03 0.04 0.05 0.05 0.05 0.05 0.04 0.03 0.03 0.04 0.03 0.03 0.03
0.06 0.05 0.04 0.04 0.05 0.07 0.07 0.07 0.08 0.09 0.08 0.06 0.05 0.05 0.03 0.03 0.02 0.02 0.03 0.03 0.02 0.02 0.02 0.03 0.04 0.03 0.03 0.04 0.05 0.05 0.05 0.05 0.04 0.03 0.04 0.04 0.03 0.03
0.03 0.04 0.03 0.05 0.07 0.07 0.07 0.08 0.09 0.08 0.06 0.04 0.04 0.03 0.04 0.04 0.05 0.04 0.04 0.05 0.05 0.04 0.04 0.03 0.03 0.03 0.04 0.04 0.05 0.04 0.05 0.05 0.05 0.04 0.04 0.05 0.04 0.04
0.01 0.01 0.02 0.03 0.05 0.06 0.05 0.05 0.04 0.03 0.03 0.03 0.02 0.03 0.04 0.05 0.06 0.07 0.08 0.09 0.09 0.07 0.05 0.05 0.04 0.04 0.03 0.03 0.04 0.03 0.03 0.03 0.03 0.04 0.04 0.05 0.06 0.05
0.01 0.01 0.02 0.04 0.07 0.08 0.05 0.04 0.04 0.02 0.02 0.02 0.02 0.03 0.03 0.04 0.05 0.06 0.06 0.06 0.06 0.06 0.04 0.04 0.03 0.03 0.03 0.03 0.03 0.03 0.02 0.02 0.03 0.03 0.03 0.03 0.04 0.05
0.02 0.02 0.03 0.04 0.07 0.08 0.05 0.04 0.04 0.03 0.02 0.02 0.02 0.02 0.02 0.03 0.04 0.04 0.04 0.04 0.04 0.05 0.05 0.03 0.02 0.02 0.02 0.02 0.02 0.02 0.02 0.02 0.02 0.02 0.03 0.02 0.03 0.03
0.02 0.03 0.03 0.04 0.05 0.05 0.04 0.03 0.03 0.04 0.04 0.03 0.02 0.02 0.02 0.02 0.02 0.03 0.03 0.03 0.03 0.02 0.03 0.04 0.03 0.03 0.02 0.02 0.02 0.01 0.02 0.02 0.02 0.02 0.02 0.02 0.02 0.03
0.02 0.03 0.03 0.03 0.04 0.04 0.04 0.03 0.03 0.03 0.06 0.05 0.04 0.03 0.02 0.02 0.02 0.02 0.02 0.03 0.03 0.02 0.02 0.02 0.03 0.02 0.02 0.02 0.01 0.01 0.01 0.01 0.02 0.02 0.02 0.02 0.03 0.03
0.02 0.02 0.02 0.02 0.03 0.04 0.03 0.03 0.03 0.02 0.03 0.06 0.04 0.03 0.03 0.03 0.03 0.03 0.03 0.03 0.03 0.03 0.02 0.02 0.02 0.03 0.03 0.02 0.02 0.02 0.02 0.02 0.02 0.03 0.03 0.03 0.03 0.02
0.02 0.02 0.02 0.02 0.02 0.03 0.02 0.02 0.03 0.02 0.02 0.04 0.05 0.03 0.04 0.05 0.04 0.03 0.03 0.02 0.03 0.03 0.03 0.03 0.04 0.04 0.04 0.03 0.02 0.02 0.03 0.04 0.04 0.04 0.04 0.04 0.03 0.02
0.04 0.03 0.02 0.02 0.02 0.03 0.02 0.02 0.03 0.02 0.03 0.04 0.05 0.04 0.05 0.06 0.06 0.04 0.03 0.02 0.03 0.03 0.03 0.03 0.04 0.04 0.04 0.04 0.04 0.03 0.02 0.03 0.04 0.06 0.05 0.04 0.03 0.03
0.07 0.05 0.04 0.03 0.02 0.02 0.01 0.02 0.03 0.03 0.04 0.05 0.05 0.04 0.04 0.05 0.05 0.04 0.03 0.03 0.03 0.03 0.04 0.03 0.03 0.03 0.03 0.03 0.03 0.03 0.02 0.02 0.02 0.05 0.07 0.06 0.04 0.04
0.07 0.05 0.05 0.04 0.03 0.03 0.02 0.02 0.02 0.03 0.05 0.04 0.04 0.04 0.04 0.04 0.05 0.05 0.04 0.04 0.04 0.04 0.03 0.03 0.03 0.03 0.02 0.02 0.02 0.02 0.02 0.02 0.02 0.02 0.03 0.04 0.05 0.05
0.04 0.04 0.04 0.04 0.04 0.03 0.03 0.04 0.04 0.05 0.05 0.06 0.06 0.06 0.05 0.05 0.05 0.05 0.04 0.03 0.03 0.02 0.03 0.03 0.03 0.02 0.02 0.02 0.01 0.01 0.01 0.01 0.02 0.02 0.03 0.03 0.03 0.03
0.01 0.01 0.01 0.02 0.02 0.02 0.03 0.04 0.04 0.06 0.07 0.07 0.08 0.08 0.08 0.05 0.03 0.02 0.02 0.02 0.01 0.01 0.01 0.02 0.03 0.03 0.02 0.02 0.02 0.01 0.01 0.02 0.02 0.03 0.04 0.04 0.04 0.03
0.01 0.01 0.01 0.02 0.02 0.02 0.03 0.03 0.04 0.06 0.06 0.05 0.05 0.05 0.05 0.03 0.01 0.01 0.01 0.01 0.01 0.01 0.01 0.02 0.02 0.02 0.03 0.03 0.02 0.02 0.01 0.01 0.02 0.02 0.02 0.03 0.04 0.03
0.01 0.02 0.02 0.02 0.03 0.03 0.04 0.04 0.04 0.04 0.03 0.03 0.03 0.03 0.04 0.04 0.02 0.01 0.01 0.01 0.01 0.01 0.02 0.02 0.02 0.02 0.03 0.03 0.04 0.03 0.02 0.01 0.01 0.01 0.01 0.01 0.01 0.01
MSLP
1016.05 1016.02 1016.00 1015.96 1015.88 1015.76 1015.59 1015.39 1015.17 1014.95 1014.74 1014.56 1014.41 1014.28 1014.15 1014.02 1013.88 1013.71 1013.53 1013.34 1013.16 1013.00 1012.86 1012.75 1012.66 1012.56 1012.45 1012.31 1012.13 1011.91 1011.66 1011.41 1011.17 1010.98 1010.83 1010.75 1010.72 1010.74
1016.19 1016.12 1016.06 1015.98 1015.87 1015.73 1015.56 1015.36 1015.16 1014.96 1014.80 1014.67 1014.56 1014.47 1014.38 1014.27 1014.13 1013.96 1013.75 1013.53 1013.31 1013.10 1012.92 1012.77 1012.64 1012.51 1012.37 1012.21 1012.00 1011.77 1011.50 1011.22 1010.95 1010.72 1010.53 1010.39 1010.31 1010.27
1016.39 1016.29 1016.20 1016.09 1015.96 1015.80 1015.62 1015.43 1015.25 1015.10 1014.98 1014.89 1014.84 1014.79 1014.73 1014.64 1014.50 1014.31 1014.07 1013.81 1013.53 1013.27 1013.03 1012.82 1012.64 1012.48 1012.31 1012.12 1011.91 1011.66 1011.38 1011.09 1010.81 1010.55 1010.32 1010.14 1010.00 1009.90
1016.65 1016.53 1016.41 1016.28 1016.14 1015.97 1015.79 1015.62 1015.46 1015.34 1015.26 1015.22 1015.20 1015.19 1015.15 1015.07 1014.93 1014.72 1014.45 1014.13 1013.80 1013.47 1013.17 1012.90 1012.66 1012.45 1012.25 1012.04 1011.81 1011.55 1011.26 1010.96 1010.66 1010.38 1010.12 1009.91 1009.72 1009.57
1016.94 1016.82 1016.69 1016.56 1016.40 1016.23 1016.06 1015.89 1015.75 1015.65 1015.60 1015.58 1015.59 1015.60 1015.58 1015.50 1015.35 1015.12 1014.82 1014.46 1014.08 1013.69 1013.33 1013.00 1012.70 1012.43 1012.19 1011.94 1011.67 1011.39 1011.08 1010.76 1010.45 1010.14 1009.85 1009.60 1009.38 1009.18
1017.22 1017.10 1016.99 1016.86 1016.71 1016.54 1016.37 1016.20 1016.07 1015.97 1015.92 1015.91 1015.93 1015.94 1015.92 1015.84 1015.69 1015.45 1015.13 1014.75 1014.33 1013.90 1013.49 1013.10 1012.75 1012.42 1012.11 1011.81 1011.50 1011.16 1010.81 1010.46 1010.10 1009.75 1009.43 1009.14 1008.88 1008.65
1017.42 1017.33 1017.23 1017.12 1016.98 1016.81 1016.64 1016.47 1016.32 1016.21 1016.14 1016.12 1016.12 1016.13 1016.10 1016.03 1015.88 1015.64 1015.33 1014.95 1014.52 1014.08 1013.63 1013.20 1012.80 1012.41 1012.04 1011.66 1011.28 1010.87 1010.45 1010.03 1009.60 1009.20 1008.83 1008.49 1008.19 1007.93
1017.49 1017.43 1017.36 1017.26 1017.14 1016.98 1016.79 1016.61 1016.43 1016.29 1016.20 1016.14 1016.12 1016.11 1016.08 1016.01 1015.87 1015.67 1015.38 1015.03 1014.63 1014.19 1013.74 1013.30 1012.85 1012.42 1011.97 1011.52 1011.04 1010.54 1010.03 1009.50 1008.99 1008.51 1008.06 1007.66 1007.31 1007.02
1017.38 1017.35 1017.31 1017.24 1017.13 1016.97 1016.78 1016.57 1016.37 1016.19 1016.05 1015.95 1015.90 1015.86 1015.83 1015.77 1015.67 1015.50 1015.27 1014.98 1014.63 1014.24 1013.82 1013.37 1012.92 1012.44 1011.93 1011.39 1010.82 1010.22 1009.59 1008.96 1008.33 1007.75 1007.20 1006.73 1006.32 1005.98
1017.08 1017.08 1017.06 1017.01 1016.92 1016.77 1016.57 1016.34 1016.11 1015.89 1015.71 1015.57 1015.48 1015.43 1015.40 1015.36 1015.29 1015.18 1015.02 1014.80 1014.53 1014.20 1013.84 1013.43 1012.97 1012.48 1011.93 1011.32 1010.66 1009.96 1009.22 1008.47 1007.74 1007.03 1006.39 1005.82 1005.34 1004.94
1016.61 1016.62 1016.63 1016.60 1016.53 1016.38 1016.18 1015.94 1015.69 1015.44 1015.22 1015.05 1014.94 1014.87 1014.84 1014.82 1014.79 1014.75 1014.66 1014.53 1014.34 1014.10 1013.80 1013.44 1013.02 1012.53 1011.96 1011.32 1010.60 1009.82 1008.99 1008.14 1007.30 1006.50 1005.75 1005.09 1004.53 1004.05
1016.01 1016.04 1016.07 1016.06 1015.99 1015.86 1015.67 1015.43 1015.16 1014.89 1014.66 1014.46 1014.33 1014.25 1014.22 1014.22 1014.23 1014.24 1014.22 1014.17 1014.07 1013.91 1013.69 1013.40 1013.03 1012.57 1012.02 1011.37 1010.63 1009.81 1008.93 1008.02 1007.10 1006.22 1005.40 1004.66 1004.01 1003.46
1015.34 1015.38 1015.42 1015.43 1015.38 1015.26 1015.08 1014.85 1014.58 1014.31 1014.07 1013.86 1013.72 1013.63 1013.60 1013.62 1013.65 1013.70 1013.74 1013.75 1013.72 1013.64 1013.49 1013.28 1012.98 1012.58 1012.07 1011.46 1010.74 1009.92 1009.04 1008.11 1007.17 1006.25 1005.38 1004.58 1003.87 1003.25
1014.65 1014.70 1014.75 1014.77 1014.73 1014.63 1014.47 1014.24 1013.99 1013.73 1013.49 1013.28 1013.13 1013.04 1013.01 1013.03 1013.07 1013.14 1013.21 1013.26 1013.28 1013.27 1013.19 1013.05 1012.83 1012.50 1012.07 1011.53 1010.87 1010.12 1009.28 1008.39 1007.47 1006.56 1005.68 1004.86 1004.12 1003.45
1013.99 1014.04 1014.09 1014.11 1014.08 1013.99 1013.84 1013.63 1013.40 1013.15 1012.92 1012.72 1012.57 1012.48 1012.44 1012.45 1012.49 1012.56 1012.64 1012.71 1012.77 1012.79 1012.78 1012.71 1012.56 1012.32 1011.99 1011.54 1010.98 1010.32 1009.58 1008.76 1007.92 1007.06 1006.22 1005.42 1004.67 1003.98
1013.35 1013.39 1013.44 1013.46 1013.43 1013.34 1013.20 1013.00 1012.78 1012.56 1012.34 1012.15 1012.01 1011.91 1011.86 1011.86 1011.89 1011.94 1012.01 1012.09 1012.17 1012.23 1012.26 1012.24 1012.17 1012.02 1011.79 1011.45 1011.01 1010.47 1009.84 1009.14 1008.40 1007.64 1006.87 1006.13 1005.41 1004.72
1012.73 1012.77 1012.80 1012.80 1012.76 1012.66 1012.52 1012.33 1012.12 1011.91 1011.71 1011.53 1011.39 1011.30 1011.24 1011.22 1011.24 1011.28 1011.34 1011.41 1011.50 1011.57 1011.64 1011.68 1011.67 1011.60 1011.46 1011.23 1010.91 1010.49 1009.99 1009.42 1008.80 1008.15 1007.49 1006.82 1006.17 1005.52
1012.14 1012.15 1012.15 1012.13 1012.06 1011.94 1011.78 1011.60 1011.39 1011.19 1011.00 1010.83 1010.70 1010.61 1010.55 1010.52 1010.53 1010.56 1010.61 1010.69 1010.77 1010.87 1010.96 1011.04 1011.09 1011.09 1011.03 1010.89 1010.67 1010.37 1009.99 1009.54 1009.04 1008.50 1007.94 1007.38 1006.80 1006.22
1011.54 1011.53 1011.49 1011.42 1011.31 1011.16 1010.99 1010.78 1010.58 1010.38 1010.19 1010.04 1009.92 1009.83 1009.78 1009.76 1009.76 1009.80 1009.86 1009.94 1010.04 1010.15 1010.27 1010.38 1010.47 1010.53 1010.53 1010.46 1010.31 1010.10 1009.81 1009.46 1009.06 1008.63 1008.18 1007.71 1007.22 1006.72
1010.96 1010.89 1010.81 1010.69 1010.53 1010.34 1010.13 1009.91 1009.70 1009.49 1009.32 1009.17 1009.06 1008.99 1008.95 1008.94 1008.96 1009.01 1009.08 1009.18 1009.31 1009.45 1009.59 1009.74 1009.86 1009.95 1009.99 1009.96 1009.87 1009.71 1009.48 1009.20 1008.89 1008.54 1008.17 1007.79 1007.40 1006.98
1010.37 1010.26 1010.11 1009.94 1009.73 1009.50 1009.26 1009.01 1008.78 1008.57 1008.40 1008.26 1008.16 1008.10 1008.07 1008.08 1008.13 1008.20 1008.31 1008.44 1008.60 1008.77 1008.95 1009.12 1009.27 1009.38 1009.44 1009.44 1009.38 1009.25 1009.06 1008.83 1008.56 1008.28 1007.99 1007.68 1007.37 1007.03
1009.80 1009.63 1009.42 1009.20 1008.94 1008.67 1008.39 1008.13 1007.88 1007.66 1007.48 1007.34 1007.25 1007.20 1007.19 1007.23 1007.30 1007.41 1007.55 1007.73 1007.92 1008.13 1008.35 1008.55 1008.72 1008.85 1008.92 1008.93 1008.88 1008.76 1008.60 1008.39 1008.17 1007.93 1007.70 1007.46 1007.22 1006.96
1009.24 1009.01 1008.75 1008.47 1008.18 1007.87 1007.57 1007.28 1007.01 1006.78 1006.60 1006.46 1006.36 1006.32 1006.33 1006.38 1006.48 1006.63 1006.81 1007.03 1007.27 1007.52 1007.77 1008.00 1008.19 1008.34 1008.42 1008.44 1008.40 1008.29 1008.14 1007.96 1007.77 1007.58 1007.39 1007.22 1007.04 1006.85
Thickness
5723 5722 5721 5720 5719 5719 5717 5715 5710 5705 5706 5709 5710 5713 5713 5714 5714 5714 5714 5713 5712 5711 5709 5708 5706 5705 5704 5702 5701 5700 5698 5696 5695 5694 5693 5692 5691 5691
5718 5717 5716 5716 5715 5715 5714 5712 5710 5706 5703 5706 5705 5707 5708 5710 5709 5709 5709 5708 5708 5707 5706 5705 5703 5702 5700 5698 5697 5695 5694 5692 5691 5689 5689 5688 5687 5686
5713 5713 5712 5711 5710 5709 5709 5707 5706 5703 5700 5701 5701 5702 5703 5704 5704 5704 5704 5703 5703 5702 5702 5701 5699 5698 5696 5695 5693 5691 5690 5688 5687 5686 5685 5684 5683 5682
5708 5707 5706 5707 5705 5704 5703 5702 5701 5700 5697 5695 5695 5696 5697 5698 5698 5698 5699 5699 5698 5698 5697 5696 5695 5694 5693 5691 5689 5687 5686 5685 5684 5683 5681 5680 5679 5678
5703 5702 5701 5701 5700 5699 5698 5697 5696 5695 5693 5691 5690 5690 5690 5691 5691 5692 5693 5692 5692 5692 5692 5692 5691 5690 5688 5687 5685 5683 5682 5681 5680 5679 5677 5676 5674 5673
5698 5698 5697 5696 5696 5694 5693 5691 5690 5688 5686 5685 5684 5683 5683 5684 5684 5684 5685 5685 5685 5686 5686 5686 5685 5684 5683 5682 5681 5679 5678 5677 5676 5675 5673 5672 5671 5669
5693 5693 5693 5692 5692 5690 5689 5686 5685 5682 5679 5678 5677 5676 5676 5677 5677 5678 5677 5678 5678 5679 5679 5679 5679 5678 5677 5677 5676 5675 5674 5673 5672 5671 5669 5668 5666 5665
5687 5687 5687 5687 5686 5685 5683 5681 5680 5676 5673 5672 5671 5671 5672 5673 5672 5672 5671 5671 5671 5672 5671 5672 5672 5671 5671 5670 5670 5670 5670 5669 5668 5666 5665 5664 5662 5661
5681 5680 5682 5682 5681 5679 5676 5675 5673 5672 5671 5670 5668 5667 5667 5668 5667 5666 5666 5666 5665 5666 5664 5664 5665 5665 5665 5664 5665 5665 5665 5664 5663 5662 5661 5660 5658 5657
5676 5675 5675 5675 5674 5672 5670 5668 5666 5666 5666 5665 5665 5665 5664 5663 5662 5662 5660 5659 5659 5658 5658 5656 5657 5658 5659 5658 5658 5658 5658 5658 5658 5657 5656 5655 5654 5652
5670 5670 5670 5669 5668 5667 5664 5662 5660 5660 5660 5660 5659 5659 5658 5657 5657 5655 5653 5653 5652 5651 5649 5649 5650 5651 5652 5652 5652 5652 5652 5651 5652 5651 5650 5649 5648 5647
5663 5664 5664 5663 5662 5660 5658 5656 5654 5654 5654 5654 5652 5652 5651 5651 5650 5650 5649 5647 5646 5644 5644 5643 5644 5643 5644 5645 5645 5645 5645 5645 5645 5644 5644 5643 5642 5640
5657 5656 5657 5656 5655 5653 5652 5650 5650 5649 5647 5646 5645 5645 5644 5644 5643 5643 5643 5642 5641 5641 5640 5638 5637 5636 5637 5638 5638 5638 5638 5638 5637 5637 5637 5636 5635 5634
5650 5650 5649 5648 5647 5646 5645 5644 5643 5642 5640 5639 5637 5637 5636 5636 5636 5637 5636 5636 5636 5636 5634 5633 5632 5631 5630 5631 5631 5631 5631 5631 5630 5630 5630 5629 5628 5627
5644 5643 5642 5641 5640 5638 5638 5638 5637 5636 5634 5632 5631 5629 5629 5629 5629 5629 5629 5628 5628 5628 5627 5627 5627 5626 5625 5625 5625 5624 5624 5623 5623 5622 5622 5622 5621 5620
5636 5636 5635 5634 5632 5631 5631 5630 5629 5629 5627 5625 5625 5623 5622 5622 5622 5622 5622 5621 5621 5620 5620 5619 5620 5620 5619 5618 5618 5618 5617 5616 5616 5615 5614 5614 5613 5613
5629 5628 5626 5625 5624 5624 5624 5623 5622 5622 5620 5619 5618 5617 5617 5616 5616 5615 5614 5613 5613 5613 5612 5612 5612 5612 5612 5612 5612 5612 5611 5610 5609 5608 5607 5608 5608 5607
5622 5620 5618 5617 5617 5618 5617 5616 5616 5616 5614 5614 5613 5612 5611 5611 5610 5608 5607 5607 5606 5606 5606 5605 5605 5605 5605 5604 5604 5604 5604 5603 5602 5601 5601 5601 5602 5601
5616 5615 5613 5611 5611 5611 5611 5610 5609 5609 5608 5608 5607 5606 5605 5604 5603 5602 5601 5600 5600 5599 5599 5599 5598 5598 5599 5600 5599 5596 5596 5596 5596 5595 5594 5594 5595 5594
5610 5609 5607 5606 5605 5604 5604 5604 5603 5602 5602 5602 5601 5600 5599 5598 5596 5595 5595 5595 5594 5594 5594 5593 5592 5592 5592 5593 5592 5590 5589 5589 5589 5589 5588 5587 5586 5586
5604 5603 5602 5600 5599 5599 5599 5598 5597 5596 5596 5596 5595 5594 5593 5592 5591 5590 5590 5587 5588 5588 5588 5587 5586 5584 5584 5583 5583 5584 5582 5581 5582 5581 5580 5579 5579 5579
5598 5597 5596 5595 5594 5594 5593 5592 5591 5591 5590 5590 5589 5588 5587 5586 5585 5584 5584 5583 5582 5581 5581 5580 5578 5578 5578 5579 5579 5578 5577 5575 5574 5573 5572 5572 5572 5573
5593 5592 5590 5590 5589 5589 5588 5587 5587 5586 5585 5584 5583 5582 5581 5580 5579 5579 5578 5577 5576 5576 5574 5574 5573 5572 5572 5571 5571 5571 5570 5570 5569 5569 5567 5566 5565 5565